Location: Caltech
(34.1382°N, 118.1253°W)
Time: 21:48:31
(UTC-07:00)

Daily predictions for brighter satellites

Satellite Brightness Start Highest point End
(mag) Time Altitude Azimuth Time Altitude Azimuth Time Altitude Azimuth
Cosmos 2344 4.4 20:22:09 10° SSE 20:28:18 26° ESE 20:34:30 10° NE
COSMOS 2487 3.5 20:29:32 10° NNW 20:32:57 47° WSW 20:36:21 10° S
Cosmos 2369 Rocket 2.2 20:32:18 10° S 20:37:48 60° ESE 20:43:24 10° NNE
YAOGAN 6 4.0 20:35:08 10° SE 20:38:04 22° ENE 20:40:59 10° NNE
Star 37E S/N 40062 4.0 20:36:36 10° WSW 20:38:20 26° S 20:40:52 12° ESE
Cosmos 1937 Rocket 4.4 20:37:25 10° SSW 20:42:25 54° WNW 20:47:27 10° N
CZ-3A R/B 2.7 20:40:54 10° WSW 20:45:09 18° SSW 20:47:00 11° SSE
USA 186 1.7 20:44:29 10° S 20:47:04 66° W 20:49:53 10° NNW
GPS 2-04 Rocket1 2.7 20:46:00 10° W 20:49:48 68° N 20:53:12 11° E
Meteor 1-29 3.8 20:46:55 10° NE 20:50:02 29° E 20:53:02 10° SSE
TIMED 4.4 20:46:38 10° S 20:50:58 72° ESE 20:55:20 10° NNE
Lacrosse 5 rocket 2.1 20:48:35 10° WSW 20:52:02 47° NW 20:55:32 10° NNE
Tsikada Rocket 4.5 20:46:01 10° SSW 20:52:11 66° W 20:58:20 10° N
H-2A R/B 4.2 20:52:39 10° E 20:54:12 11° ENE 20:55:46 10° NE
Cosmos 1346 Rocket 2.7 20:50:23 10° N 20:54:22 72° E 20:58:22 10° SSE
COSMOS 2455 3.1 20:48:37 10° SSW 20:54:36 77° WNW 21:00:39 10° NNE
Helios 1A 3.4 20:52:09 13° SE 20:55:39 45° ENE 20:59:40 10° N
Delta 168 4.2 20:53:57 10° SW 20:56:40 21° S 20:58:32 16° SE
ATLAS 5 CENTAUR R/B 3.8 20:55:07 10° N 21:00:05 26° NE 21:04:25 13° E
CZ-4B DEB 4.4 20:56:44 11° SSE 21:00:07 76° ENE 21:03:41 10° N
Aureole 3 3.2 20:58:53 16° SSE 21:01:01 37° E 21:03:48 10° NNE
Cosmos 1939 Rocket 2.9 20:59:42 10° SSE 21:03:49 81° ENE 21:07:57 10° N
OAO 3 Copernicus 4.2 20:59:18 10° WSW 21:04:19 74° SSE 21:09:12 11° E
Cosmos 1408 3.3 21:02:40 18° SSE 21:04:56 35° E 21:08:22 10° NNE
ISS -0.8 21:02:51 10° W 21:05:14 19° NNW 21:07:37 10° NNE
ERS-1 Rocket 3.8 21:03:38 18° ESE 21:06:37 33° ENE 21:11:05 10° N
Cosmos 1634 Rocket 4.0 21:04:50 10° N 21:11:10 73° E 21:17:15 11° SSE
Tiangong 2 1.0 21:09:13 10° WNW 21:12:26 87° NNE 21:13:47 32° ESE
ARGOS 4.3 21:10:23 19° ESE 21:12:56 26° ENE 21:17:19 10° NNE
Spot 1 4.4 21:10:06 17° SSE 21:13:43 66° ENE 21:18:41 10° N
CZ-4B DEB 2.8 21:13:38 34° SE 21:14:32 48° ENE 21:17:22 10° N
Resurs 01 Rocket 3.6 21:13:29 10° SSW 21:17:12 26° W 21:20:57 10° NW
Cosmos 1825 2.1 21:20:29 23° SSE 21:22:40 60° E 21:26:24 10° NNE
Shenzhou-11 Module 2.5 21:24:38 10° WNW 21:27:35 45° SSW 21:28:05 41° S
USA 215 4.3 21:25:19 15° E 21:29:54 35° NE 21:35:42 10° NNW
Okean 1-7 2.9 21:26:28 10° N 21:30:53 81° E 21:33:11 28° SSE
TRAILBLAZER 4.5 21:28:48 10° SSW 21:33:15 66° ESE 21:37:46 10° NE
Cosmos 1782 2.7 21:30:09 10° N 21:34:08 72° E 21:35:30 39° SSE
SPOT 5 3.8 21:36:06 30° ESE 21:37:51 38° ENE 21:42:45 10° N
Cosmos 372 Rocket 4.2 21:38:03 10° SSW 21:43:09 71° WNW 21:48:16 10° NNE
Cosmos 2279 Rocket 3.9 21:37:21 10° N 21:43:38 77° E 21:47:09 28° SSE
MetOp-A 4.1 21:42:39 34° SSE 21:44:59 69° ENE 21:50:19 10° N
Cosmos 1862 3.1 21:50:16 58° SSE 21:50:57 77° E 21:54:55 10° N
CENTAUR R/B 3.4 21:45:41 10° SW 21:51:23 49° NW 21:57:51 10° NNE
SPOT 1/Viking Rocket 4.2 21:51:10 35° E 21:52:07 38° ENE 21:56:55 10° N
deb Kosmos-1763 3.9 21:48:39 10° NNW 21:52:25 77° ENE 21:52:38 73° ESE
Cosmos 1733 Rocket 2.9 21:54:41 59° ESE 21:55:01 61° E 21:59:18 10° NNE
Cosmos 1943 Rocket 3.0 21:50:18 10° SW 21:55:43 50° WNW 22:01:07 10° N
Intercosmos 25 Rocket 4.4 21:53:51 10° N 21:59:48 41° ENE 22:00:10 41° E
Cosmos 1269 Rocket 3.9 21:55:16 10° NNW 22:00:35 86° ENE 22:02:02 49° SSE
Cosmos 1340 2.5 21:57:22 10° N 22:01:10 84° W 22:01:16 82° SW
Cosmos 2084 4.3 21:59:03 10° NW 22:02:37 35° WSW 22:03:15 33° SW
Cosmos 2180 Rocket 4.5 21:56:59 10° N 22:03:24 89° W 22:06:17 35° S
Lacrosse 4 Rocket 1.4 22:02:37 10° NNW 22:07:06 69° ENE 22:07:15 68° E
ATLAS CENTAUR R/B 3.6 22:15:11 15° NE 22:15:11 15° NE 22:15:54 10° NE
Nimbus 7 Rocket 4.2 22:07:19 10° NNE 22:13:11 73° ESE 22:14:53 48° S
SL-08 RB Rocket 3.6 22:17:13 76° S 22:17:34 88° WSW 22:22:16 10° NNW
Cosmos 1606 4.3 22:16:23 10° NNW 22:19:38 28° W 22:20:25 26° WSW
Meteor 2-20 4.3 22:21:20 55° SSE 22:22:41 76° E 22:28:47 10° N
Meteor 2-20 Rocket 4.4 22:23:36 57° ESE 22:24:06 59° E 22:30:07 10° NNE
GPS 2-04 Rocket1 4.4 22:25:55 10° W 22:27:39 25° W 22:27:39 25° W
Cosmos 494 Rocket 4.3 22:24:58 10° N 22:29:48 53° ENE 22:29:48 53° ENE
Cosmos 1867 4.0 22:27:15 10° NNW 22:32:30 46° ENE 22:32:34 46° ENE
H-2A R/B 2.0 22:32:21 71° SSW 22:32:53 81° WSW 22:38:16 10° NNW
Cosmos 1833 4.3 22:29:15 10° NNW 22:34:58 68° WSW 22:35:41 61° SSW
Cosmos 2026 Rocket 4.2 22:36:08 50° E 22:36:08 50° E 22:41:48 10° NNE
Cosmos 1674 Rocket 4.0 22:31:55 10° N 22:35:25 57° NNW 22:35:25 57° NNW
Milstar 3 3.1 22:27:27 10° WSW 22:38:03 58° S 22:39:07 54° SSE
Landsat 7 4.0 22:39:41 65° NNE 22:39:41 65° NNE 22:43:49 10° N
Cosmos 2344 4.5 22:34:47 10° SW 22:42:08 48° NW 22:50:08 10° NNE
Cosmos 2297 Rocket 4.3 22:42:02 10° NNE 22:44:43 13° NE 22:45:04 13° ENE
ATLAS 5 CENTAUR R/B 2.8 22:39:02 10° NW 22:45:06 57° WSW 22:45:58 53° SSW
H-2A R/B 3.9 22:47:58 23° NNE 22:47:58 23° NNE 22:49:51 10° N
ARGOS 4.4 22:51:54 30° WSW 22:52:59 33° W 22:57:46 10° NW
Terra 2.5 22:55:21 51° N 22:55:21 51° N 22:58:58 10° N
Cosmos 1092 Rocket 4.5 23:01:10 44° WSW 23:02:32 53° W 23:08:32 10° N
USA 215 3.3 23:12:40 64° SW 23:12:40 64° SW 23:19:06 10° NW
Cosmos 1553 Rocket 4.4 23:15:48 10° N 23:21:03 54° NE 23:21:03 54° NE
Cosmos 2227 Rocket 3.3 23:29:38 10° N 23:33:36 37° NNE 23:33:36 37° NNE
Cosmos 2219 4.2 23:36:53 10° NNW 23:41:02 41° WNW 23:41:02 41° WNW
BREEZE-M DEB (TANK) 4.5 23:35:00 10° WNW 23:50:45 68° NNE 23:50:59 67° NE
ATLAS CENTAUR R/B 4.3 23:51:21 12° NW 23:51:21 12° NW 23:52:51 10° NNW
